Weather History for Atka, AK

Change the Weather History Date:

Sunday, December 29, 2013

  Actual Average (PADK) Record (PADK)
Temperature  
Mean Temperature 38 °F -  
Max Temperature 39 °F 37 °F 45 °F (1949)
Min Temperature 37 °F 27 °F 12 °F (2011)
Degree Days  
Heating Degree Days 27    
Moisture  
Dew Point 32 °F    
Average Humidity 79    
Maximum Humidity 87    
Minimum Humidity 60    
Precipitation  
Precipitation 0.00 in - - ()
Sea Level Pressure  
Sea Level Pressure 29.20 in    
Wind  
Wind Speed 19 mph (WSW)    
Max Wind Speed 32 mph    
Max Gust Speed 40 mph    
Visibility 8 miles    
Events      
Averages and records for this station are not official NWS values.
T = Trace of Precipitation, MM = Missing Value Source: NWS Daily Summary

Daily Weather History Graph

Daily Weather History Graph

Search for Another Location

Airport:

Trip Planner

Search our weather history database for the weather conditions in past years. The results will help you decide how hot, cold, wet, or windy it might be!

Date:

Astronomy

Dec. 29, 2013 Rise Set
Actual Time 9:46 AM HAST 5:32 PM HAST
Civil Twilight 9:05 AM HAST 6:13 PM HAST
Nautical Twilight 8:21 AM HAST 6:57 PM HAST
Astronomical Twilight 7:39 AM HAST 7:38 PM HAST
Moon 6:35 AM HAST (12/29) 3:31 PM HAST (12/29)
Length of Visible Light 9h 08m
Length of Day
7h 46m
Waning Crescent, 9% of the Moon is Illuminated
Dec 29
Waning Crescent
Jan 1
New
Jan 7
First Quarter
Jan 15
Full
Jan 23
Last Quarter

Hourly Weather History & Observations

Time (HAST) Temp. Windchill Dew Point Humidity Pressure Visibility Wind Dir Wind Speed Gust Speed Precip Events Conditions
12:16 AM 37.4 °F 28.2 °F 33.8 °F 87% 29.42 in 2.5 mi ESE 16.1 mph - N/A   Overcast
12:36 AM 37.4 °F 28.2 °F 33.8 °F 87% 29.41 in 3.0 mi SE 16.1 mph 23.0 mph N/A   Overcast
12:56 AM 39.2 °F 30.5 °F 33.8 °F 81% 29.40 in 3.0 mi SE 16.1 mph - N/A   Overcast
1:16 AM 39.2 °F 29.8 °F 33.8 °F 81% 29.38 in 6.0 mi ESE 18.4 mph - N/A   Overcast
1:36 AM 39.2 °F 30.2 °F 35.6 °F 87% 29.36 in 9.0 mi SE 17.3 mph - N/A   Overcast
1:56 AM 39.2 °F 29.0 °F 35.6 °F 87% 29.34 in 7.0 mi ESE 21.9 mph 25.3 mph N/A   Overcast
2:16 AM 39.2 °F 29.0 °F 35.6 °F 87% 29.33 in 10.0 mi ESE 21.9 mph 25.3 mph N/A   Overcast
2:36 AM 39.2 °F 29.0 °F 33.8 °F 81% 29.31 in 10.0 mi ESE 21.9 mph 26.5 mph N/A   Overcast
2:56 AM 39.2 °F 29.8 °F 35.6 °F 87% 29.29 in 10.0 mi ESE 18.4 mph - N/A   Overcast
3:16 AM 39.2 °F 29.0 °F 35.6 °F 87% 29.28 in 9.0 mi ESE 21.9 mph 27.6 mph N/A   Overcast
3:36 AM 39.2 °F 29.0 °F 35.6 °F 87% 29.27 in 7.0 mi ESE 21.9 mph 27.6 mph N/A   Overcast
3:56 AM 39.2 °F 28.7 °F 35.6 °F 87% 29.26 in 8.0 mi SE 23.0 mph 26.5 mph N/A   Overcast
4:16 AM 39.2 °F 28.7 °F 35.6 °F 87% 29.25 in 7.0 mi ESE 23.0 mph 29.9 mph N/A   Overcast
4:36 AM 39.2 °F 29.0 °F 35.6 °F 87% 29.23 in 5.0 mi SE 21.9 mph 31.1 mph N/A   Overcast
4:56 AM 39.2 °F 28.0 °F 35.6 °F 87% 29.21 in 5.0 mi ESE 26.5 mph 31.1 mph N/A   Overcast
5:16 AM 39.2 °F 29.3 °F 33.8 °F 81% 29.20 in 5.0 mi ESE 20.7 mph 28.8 mph N/A   Overcast
5:36 AM 39.2 °F 29.0 °F 35.6 °F 87% 29.18 in 6.0 mi ESE 21.9 mph 27.6 mph N/A   Overcast
5:56 AM 39.2 °F 29.3 °F 35.6 °F 87% 29.16 in 9.0 mi ESE 20.7 mph - N/A   Overcast
6:16 AM 39.2 °F 29.8 °F 35.6 °F 87% 29.15 in 8.0 mi East 18.4 mph - N/A   Overcast
6:36 AM 39.2 °F 29.3 °F 35.6 °F 87% 29.13 in 8.0 mi ESE 20.7 mph 25.3 mph N/A   Overcast
6:56 AM 39.2 °F 29.6 °F 35.6 °F 87% 29.11 in 7.0 mi ESE 19.6 mph - N/A   Overcast
7:16 AM 39.2 °F 30.2 °F 35.6 °F 87% 29.10 in 7.0 mi ESE 17.3 mph - N/A   Overcast
7:36 AM 39.2 °F 30.2 °F 35.6 °F 87% 29.09 in 6.0 mi ESE 17.3 mph 24.2 mph N/A   Overcast
7:56 AM 39.2 °F 30.8 °F 35.6 °F 87% 29.08 in 9.0 mi East 15.0 mph 21.9 mph N/A   Overcast
8:16 AM 39.2 °F 31.6 °F 33.8 °F 81% 29.07 in 10.0 mi East 12.7 mph - N/A   Overcast
8:36 AM 39.2 °F 31.6 °F 33.8 °F 81% 29.06 in 10.0 mi ENE 12.7 mph - N/A   Overcast
8:56 AM 39.2 °F 33.0 °F 33.8 °F 81% 29.05 in 10.0 mi ENE 9.2 mph - N/A   Overcast
9:16 AM 39.2 °F - 33.8 °F 81% 29.05 in 10.0 mi Calm Calm - N/A   Overcast
9:36 AM 39.2 °F 33.6 °F 33.8 °F 81% 29.06 in 10.0 mi WNW 8.1 mph - N/A   Overcast
9:56 AM 39.2 °F 30.5 °F 33.8 °F 81% 29.06 in 9.0 mi WNW 16.1 mph - N/A   Overcast
10:16 AM 37.4 °F 28.2 °F 33.8 °F 87% 29.07 in 5.0 mi WNW 16.1 mph 19.6 mph N/A   Overcast
10:36 AM 37.4 °F 27.8 °F 33.8 °F 87% 29.08 in 7.0 mi WNW 17.3 mph - N/A   Overcast
10:56 AM 37.4 °F 27.8 °F 33.8 °F 87% 29.09 in 8.0 mi WNW 17.3 mph 23.0 mph N/A   Overcast
11:16 AM 37.4 °F 28.5 °F 32.0 °F 81% 29.11 in 10.0 mi West 15.0 mph 24.2 mph N/A   Overcast
11:36 AM 37.4 °F 27.5 °F 32.0 °F 81% 29.11 in 3.0 mi West 18.4 mph 23.0 mph N/A   Overcast
11:56 AM 37.4 °F 27.2 °F 33.8 °F 87% 29.11 in 4.0 mi WNW 19.6 mph 28.8 mph N/A   Overcast
12:16 PM 37.4 °F 27.2 °F 33.8 °F 87% 29.12 in 1.2 mi West 19.6 mph 26.5 mph N/A   Overcast
12:36 PM 37.4 °F 26.9 °F 33.8 °F 87% 29.12 in 9.0 mi WNW 20.7 mph 28.8 mph N/A   Overcast
12:56 PM 37.4 °F 26.1 °F 33.8 °F 87% 29.12 in 3.0 mi WNW 24.2 mph 29.9 mph N/A   Overcast
1:16 PM - - - N/A% 29.12 in 4.0 mi WNW 24.2 mph 33.4 mph N/A   Overcast
1:36 PM 37.4 °F 26.1 °F 33.8 °F 87% 29.13 in 5.0 mi WNW 24.2 mph 34.5 mph N/A   Overcast
1:56 PM 39.2 °F 28.0 °F 33.8 °F 81% 29.13 in 10.0 mi WNW 26.5 mph 35.7 mph N/A   Overcast
2:16 PM 39.2 °F 29.0 °F 33.8 °F 81% 29.15 in 5.0 mi West 21.9 mph 34.5 mph N/A   Overcast
2:36 PM 39.2 °F 27.4 °F 33.8 °F 81% 29.16 in 5.0 mi West 29.9 mph 38.0 mph N/A   Overcast
2:56 PM - - - N/A% 29.15 in 7.0 mi WNW 27.6 mph 39.1 mph N/A   Overcast
3:16 PM 39.2 °F 28.3 °F 33.8 °F 81% 29.17 in 10.0 mi West 25.3 mph 35.7 mph N/A   Overcast
3:36 PM 39.2 °F 28.7 °F 33.8 °F 81% 29.18 in 7.0 mi West 23.0 mph 32.2 mph N/A   Overcast
3:56 PM - - - N/A% 29.18 in 10.0 mi West 28.8 mph 40.3 mph N/A   Overcast
4:16 PM - - - N/A% 29.18 in 10.0 mi West 27.6 mph 38.0 mph N/A   Overcast
4:36 PM - - - N/A% 29.18 in 9.0 mi West 23.0 mph 39.1 mph N/A   Overcast
4:56 PM 39.2 °F 28.0 °F 33.8 °F 81% 29.19 in 9.0 mi West 26.5 mph 35.7 mph N/A   Overcast
5:16 PM 39.2 °F 28.3 °F 32.0 °F 75% 29.20 in 10.0 mi West 25.3 mph 32.2 mph N/A   Overcast
5:36 PM - - - N/A% 29.20 in 10.0 mi West 32.2 mph 40.3 mph N/A   Overcast
5:56 PM 39.2 °F 28.3 °F 30.2 °F 70% 29.21 in 10.0 mi West 25.3 mph 36.8 mph N/A   Overcast
6:16 PM 39.2 °F 29.3 °F 30.2 °F 70% 29.22 in 10.0 mi West 20.7 mph 33.4 mph N/A   Overcast
6:36 PM 39.2 °F 28.0 °F 28.4 °F 65% 29.23 in 10.0 mi West 26.5 mph 32.2 mph N/A   Overcast
6:56 PM 39.2 °F 28.3 °F 28.4 °F 65% 29.23 in 10.0 mi West 25.3 mph 33.4 mph N/A   Overcast
7:16 PM - - - N/A% 29.22 in 10.0 mi West 25.3 mph 32.2 mph N/A   Overcast
7:36 PM 39.2 °F 28.5 °F 30.2 °F 70% 29.23 in 10.0 mi West 24.2 mph 34.5 mph N/A   Overcast
7:56 PM 39.2 °F 29.6 °F 28.4 °F 65% 29.23 in 10.0 mi West 19.6 mph 26.5 mph N/A   Overcast
8:16 PM 39.2 °F 28.7 °F 28.4 °F 65% 29.23 in 10.0 mi West 23.0 mph 31.1 mph N/A   Overcast
8:36 PM 39.2 °F 29.6 °F 28.4 °F 65% 29.24 in 10.0 mi West 19.6 mph 25.3 mph N/A   Mostly Cloudy
8:56 PM 39.2 °F 29.3 °F 26.6 °F 61% 29.24 in 10.0 mi West 20.7 mph 26.5 mph N/A   Overcast
9:16 PM 39.2 °F 29.8 °F 26.6 °F 61% 29.24 in 10.0 mi West 18.4 mph 28.8 mph N/A   Overcast
9:36 PM 37.4 °F 27.5 °F 26.6 °F 65% 29.25 in 10.0 mi West 18.4 mph - N/A   Overcast
9:56 PM 39.2 °F 30.8 °F 26.6 °F 61% 29.25 in 10.0 mi West 15.0 mph 21.9 mph N/A   Overcast
10:16 PM 39.2 °F 31.2 °F 26.6 °F 61% 29.25 in 10.0 mi West 13.8 mph 23.0 mph N/A   Overcast
10:36 PM 37.4 °F 28.9 °F 26.6 °F 65% 29.25 in 10.0 mi West 13.8 mph 21.9 mph N/A   Overcast
10:56 PM 37.4 °F 30.8 °F 26.6 °F 65% 29.25 in 10.0 mi West 9.2 mph - N/A   Overcast
11:16 PM 37.4 °F 29.3 °F 26.6 °F 65% 29.25 in 10.0 mi West 12.7 mph 19.6 mph N/A   Mostly Cloudy
11:36 PM 37.4 °F 29.3 °F 24.8 °F 60% 29.25 in 10.0 mi West 12.7 mph - N/A   Scattered Clouds
11:56 PM 37.4 °F 32.8 °F 24.8 °F 60% 29.25 in 10.0 mi West 5.8 mph - N/A   Mostly Cloudy